Location: Newark
(13.6797°N, 8.5297°E)
Time: 04:24:25
(UTC+00:00)

A-11 Canister half - Pass Details

Date: 24 January 2020
Orbit: 1517 x 1683 km, 47.2° (Epoch: 18 February)

Event Time Altitude Azimuth Distance (km) Brightness Sun altitude
Rises 20:28:37 0° 215° (SW) 4,853 12.1 -44.4°
Reaches altitude 10° 20:31:48 10° 213° (SSW) 3,845 11.4 -45.2°
Enters shadow 20:36:56 36° 205° (SSW) 2,343 10.0 -46.4°
Maximum altitude 20:41:31 72° 130° (SE) 1,645 - -47.4°
Drops below altitude 10° 20:50:53 10° 47° (NE) 3,718 - -49.7°
Sets 20:53:54 0° 46° (NE) 4,686 - -50.4°
